Location: Utrecht
(52.0907°N, 5.1214°E)
Time: 19:01:07
(UTC+02:00)

SPROUT - Pass Details

Date: 05 July 2022
Orbit: 588 x 598 km, 97.9° (Epoch: 09 August)

Event Time Altitude Azimuth Distance (km) Brightness Sun altitude
Exits shadow 01:22:41 12° 122° (ESE) 1,799 ? -15.0°
Maximum altitude 01:25:59 30° 64° (ENE) 1,077 ? -15.0°
Drops below altitude 10° 01:29:38 10° 4° (N) 1,933 ? -15.0°
Sets 01:31:59 0° 353° (N) 2,840 ? -15.1°
